Preview of NWS' New Version of Forecast
This preview is not operational and should not be used for support decisions.

Regional Weather Roundup (RWR)

Issued by National Weather Service (NWS)

                            
000
ASUS43 KDTX 180910
RWRMI 
MICHIGAN HOURLY REGIONAL WEATHER ROUNDUP
NATIONAL WEATHER SERVICE DETROIT/PONTIAC MI
400 AM EST MON FEB 18 2019

NOTE: "FAIR" INDICATES FEW OR NO CLOUDS BELOW 12,000 FEET WITH NO
SIGNIFICANT WEATHER AND/OR OBSTRUCTION TO VISIBILITY.

MIZ047>049-052>055-059>063-066>070-074>076-081>083-181000-
SOUTHEAST LOWER MICHIGAN
  
CITY           SKY/WX    TMP DP  RH WIND       PRES   REMARKS
ADRIAN         FLURRIES  20  17  88 N7        29.96R WCI  11          
ALMA           FLURRIES  18  14  82 N10       30.01R WCI   7          
ANN ARBOR      LGT SNOW  20  16  84 NW12      29.95R FOG     WCI   8  
BAD AXE        FLURRIES  22  17  81 N7        29.95R WCI  14          
CARO           LGT SNOW  22  19  90 N10       29.96R WCI  11          
DETROIT CITY   LGT SNOW  20  15  81 N8        29.94R WCI  10          
DETROIT        LGT SNOW  22  16  78 N9        29.95R WCI  12          
FLINT          CLOUDY    20  13  74 N5        29.96R WCI  13          
GROSSE ILE     FLURRIES  22  18  83 N6        29.94R WCI  15          
HILLSDALE      LGT SNOW  20  16  84 N3        29.93R                  
HOWELL         LGT SNOW  19  16  86 N3        29.95R                  

CITY           SKY/WX    TMP DP  RH WIND       PRES   REMARKS
JACKSON        LGT SNOW  20  18  92 NW3       29.96R FOG              
LAMBERTVILLE   LGT SNOW  24  20  87 NW5       29.96R WCI  18          
LANSING        LGT SNOW  18  16  92 N9        29.99R WCI   7          
LAPEER         FLURRIES  20  12  73 N3        29.95R                  
MASON          LGT SNOW  20  18  90 N7        29.97R WCI  11          
MONROE         LGT SNOW  22  22  98 N3        29.94R                  
MT. CLEMENS    FLURRIES  19  19  97 N8          N/A  WCI   9          
PONTIAC        LGT SNOW  19  15  84 N7        29.92R FOG     WCI  10  
PORT HOPE        N/A     23  16  74 NE18      29.96R WCI   9          
PORT HURON     LGT SNOW  19  16  86 N5        29.94R WCI  13          
TRI CITIES     CLOUDY    19  14  81 N17       29.99S WCI   4          
MIDLAND        FLURRIES  19  14  81 N8        30.00S WCI   9          
TROY           LGT SNOW  21  15  79 N7        29.96R WCI  12          
SAGINAW HB     LGT SNOW  21  18  86 N12       29.99R WCI   9          
$$
MIZ043>046-050>051-056>058-064>065-071>073-077>080-181000-
SOUTHWEST LOWER MICHIGAN
  
CITY           SKY/WX    TMP DP  RH WIND       PRES   REMARKS
BATTLE CREEK   FLURRIES  20  17  88 N7        29.98R WCI  11          
BENTON HARBOR  LGT SNOW  22  18  85 VRB3      30.02R FOG              
BIG RAPIDS     CLOUDY    17  12  82 N5        30.02R WCI   9          
COLDWATER      FLURRIES  22  20  94 N3        29.97R                  
FREMONT        FLURRIES  18  13  82 N5        30.04R WCI  11          
HOLLAND        LGT SNOW  21  16  81 N6        30.04R WCI  13          
GRAND RAPIDS   LGT SNOW  19  14  81 N7        30.02R WCI  10          
IONIA          FLURRIES  19  13  79 N7        30.00R WCI   9          
KALAMAZOO      LGT SNOW  21  17  84 N8        29.99R FOG     WCI  11  
LUDINGTON      CLOUDY    18  11  74 NE3       30.08R                  
MARSHALL       LGT SNOW  21  21 100 N6        29.97R WCI  13          
MOUNT PLEASANT LGT SNOW  18  12  77 N8        30.01R WCI   8          
MUSKEGON       LGT SNOW  20  13  74 N8        30.06R WCI  10          
SOUTH HAVEN    LGT SNOW  22  19  87 N7        30.02R WCI  14          
$$
MIZ016>042-181000-
NORTHERN LOWER MICHIGAN
  
CITY           SKY/WX    TMP DP  RH WIND       PRES   REMARKS
ALPENA         CLOUDY    16   8  71 NE10      30.05R WCI   4          
BEAVER ISLAND  MOCLDY    11   6  78 NE5       30.12R WCI   3          
BELLAIRE       FAIR       9   5  82 CALM      30.10R                  
CADILLAC       CLOUDY    13   7  76 N3        30.00R                  
CHARLEVOIX     MOCLDY    14   7  74 NE5       30.12R WCI   7          
FRANKFORT      CLOUDY    18  10  73 CALM      30.10R                  
GAYLORD        FAIR      10   6  84 NE5       30.01R WCI   2          
GRAYLING       FAIR      11   7  85 N5        30.02R WCI   3          
HARBOR SPRINGS FAIR      14   6  69 NE10      30.08R WCI   1          
HOUGHTON LAKE  CLOUDY    14   7  73 N6        30.01R WCI   5          
MANISTEE       CLOUDY    17  10  74 N6        30.09R WCI   9          
OSCODA         FLURRIES  20  12  71 NE15G22   30.01R WCI   7          
PELLSTON       FAIR       4   1  88 N5        30.10R WCI  -5          
ROGERS CITY    MOCLDY    17   9  72 NE12      30.08S WCI   4          
TRAVERSE CITY  FAIR      15   8  73 CALM      30.08R                  
$$
MIZ007>008-015-181000-
EASTERN UPPER MICHIGAN
  
CITY           SKY/WX    TMP DP  RH WIND       PRES   REMARKS
KINROSS        FAIR       7   1  76 N8        30.12R WCI  -6          
MACKINAC ISLAN FAIR      11   5  76 NE15      30.10S WCI  -5          
NEWBERRY       FAIR       4   1  87 MISG      30.13R                  
S. S. MARIE    FAIR       9   1  70 NE6       30.13R WCI  -1          
MUNISING         N/A     19  11  70 NE10      30.15R WCI   7          
$$
MIZ004>006-011>014-085-181000-
CENTRAL UPPER MICHIGAN
  
CITY           SKY/WX    TMP DP  RH WIND       PRES   REMARKS
MANISTIQUE     FAIR       8   1  72 N7        30.14R WCI  -3          
ESCANABA       CLOUDY    14  10  84 NW5       30.15R WCI   6          
MENOMINEE      CLOUDY    14  11  87 N9        30.16R WCI   2          
SAWYER-GWINN   LGT SNOW  18  15  88 NE13      30.10S VSB 3/4 WCI   5  
$$
MIZ001>003-009>011-084-181000-
WESTERN UPPER MICHIGAN
  
CITY           SKY/WX    TMP DP  RH WIND       PRES   REMARKS
IRON MOUNTAIN  FAIR       7   2  80 NW9       30.13R WCI  -7          
HOUGHTON       FAIR       4  -3  73 N8        30.21R WCI  -9          
COPPER HARBOR    N/A     11   4  73 NE16      30.24S WCI  -6          
IRONWOOD       FLURRIES   4   2  91 N3        30.24R                  
$$

ABBREVIATIONS USED IN REMARKS
   TC - TEMPERATURE IN CELSIUS
  WCI - WIND CHILL INDEX
   HX - HEAT INDEX
  VSB - VISIBILITY